This demonstration page uses our WeatherBlox Daily Observations layout. Learn more.

40.92945, -100.16068

Hourly Observations for March 2, 2017

Temp ( °F °C ) Dew Point ( °F °C ) Humidity (%) Winds ( mph kmh ) Pressure ( in mb ) Visibility ( mi km ) Precip ( " mm )
12:15 am 00:15 Clear 28 -2.5 20 -6.9 72 72 W 9 15 30.36 1028 10 16.0934 0 0
12:35 am 00:35 Clear 28 -2.2 20 -6.9 71 71 W 8 13 30.36 1028 10 16.0934 0 0
12:55 am 00:55 Clear 28 -2.1 19 -7 69 69 W 6 9 30.36 1028 10 16.0934 0 0
1:15 am 01:15 Clear 26 -3.5 18 -7.6 74 74 WSW 8 13 30.39 1029 10 16.0934 0 0
1:35 am 01:35 Clear 26 -3.6 18 -7.7 74 74 W 8 13 30.39 1029 10 16.0934 0 0
1:55 am 01:55 Clear 26 -3.4 19 -7.5 74 74 WSW 6 9 30.39 1029 10 16.0934 0 0
2:15 am 02:15 Clear 27 -2.6 20 -6.9 73 73 W 8 13 30.36 1028 10 16.0934 0 0
2:35 am 02:35 Clear 26 -3.3 19 -7.2 75 75 W 7 11 30.39 1029 10 16.0934 0 0
2:55 am 02:55 Clear 26 -3.3 19 -7.1 75 75 W 8 13 30.39 1029 10 16.0934 0 0
3:15 am 03:15 Clear 25 -4 19 -7.5 77 77 WNW 7 11 30.39 1029 10 16.0934 0 0
3:35 am 03:35 Clear 27 -2.7 20 -6.7 74 74 W 10 17 30.36 1028 10 16.0934 0 0
3:55 am 03:55 Clear 31 -0.8 21 -6.2 67 67 WNW 9 15 30.36 1028 10 16.0934 0 0
4:15 am 04:15 Clear 30 -1 21 -6.1 69 69 WNW 9 15 30.36 1028 10 16.0934 0 0
4:35 am 04:35 Clear 30 -1.2 21 -6 70 70 WNW 10 17 30.36 1028 10 16.0934 0 0
4:55 am 04:55 Clear 31 -0.8 21 -6.1 68 68 W 9 15 30.39 1029 10 16.0934 0 0
5:15 am 05:15 Clear 28 -2.1 20 -6.7 71 71 W 7 11 30.39 1029 10 16.0934 0 0
5:35 am 05:35 Clear 26 -3.4 19 -7.2 75 75 W 5 7 30.42 1030 10 16.0934 0 0
5:55 am 05:55 Clear 25 -3.7 19 -7.3 76 76 W 7 11 30.42 1030 10 16.0934 0 0
6:15 am 06:15 Clear 24 -4.3 19 -7.5 79 79 W 8 13 30.45 1031 10 16.0934 0 0
6:35 am 06:35 Clear 24 -4.3 19 -7.4 79 79 WNW 10 17 30.45 1031 10 16.0934 0 0
6:55 am 06:55 Clear 26 -3.3 20 -6.8 77 77 WNW 10 17 30.48 1032 10 16.0934 0 0
7:15 am 07:15 Sunny 27 -2.9 20 -6.5 77 77 WNW 10 17 30.48 1032 10 16.0934 0 0
7:35 am 07:35 Sunny 28 -2.5 20 -6.5 74 74 WNW 9 15 30.48 1032 10 16.0934 0 0
7:55 am 07:55 Sunny 29 -1.7 21 -5.9 73 73 WNW 10 17 30.48 1032 10 16.0934 0 0
8:15 am 08:15 Sunny 30 -1.1 22 -5.4 73 73 WNW 10 17 30.48 1032 10 16.0934 0 0
8:35 am 08:35 Sunny 31 -0.3 23 -4.9 71 71 WNW 12 19 30.48 1032 10 16.0934 0 0
8:55 am 08:55 Sunny 33 0.3 24 -4.5 70 70 NW 12 19 30.5 1033 10 16.0934 0 0
9:15 am 09:15 Sunny 34 1.2 25 -4.1 68 68 NW 12 19 30.48 1032 10 16.0934 0 0
9:35 am 09:35 Sunny 37 2.5 26 -3.3 66 66 NW 12 19 30.48 1032 10 16.0934 0.02 0.508
9:55 am 09:55 Sunny 38 3.6 26 -3.2 61 61 NNW 16 26 30.48 1032 10 16.0934 0.02 0.508
10:35 am 10:35 Sunny 42 5.3 23 -4.8 48 48 N 20 31 30.45 1031 10 16.0934 0 0
10:55 am 10:55 Sunny 43 5.9 23 -5.1 45 45 NNW 20 31 30.45 1031 10 16.0934 0 0
11:15 am 11:15 Sunny 43 6 22 -5.6 44 44 NNW 17 28 30.45 1031 10 16.0934 0 0
11:35 am 11:35 Sunny 44 6.5 21 -5.9 41 41 NNW 16 26 30.45 1031 10 16.0934 0 0
11:55 am 11:55 Sunny 44 6.6 21 -6.2 40 40 NNW 14 22 30.45 1031 10 16.0934 0 0
12:15 pm 12:15 Sunny 44 6.9 20 -6.5 38 38 NNW 14 22 30.45 1031 10 16.0934 0 0
12:35 pm 12:35 Sunny 46 7.5 20 -6.9 36 36 NNW 18 30 30.42 1030 10 16.0934 0 0
12:55 pm 12:55 Sunny 46 7.6 19 -7.2 35 35 NNW 14 22 30.42 1030 10 16.0934 0 0
1:15 pm 13:15 Sunny 46 8 19 -7.2 34 34 NNW 12 19 30.42 1030 10 16.0934 0 0
1:35 pm 13:35 Sunny 46 7.6 19 -7.4 34 34 NNW 15 24 30.42 1030 10 16.0934 0 0
1:55 pm 13:55 Sunny 47 8.2 19 -7.5 32 32 NW 17 28 30.42 1030 10 16.0934 0 0
2:15 pm 14:15 Sunny 47 8.2 18 -7.8 32 32 NW 13 20 30.42 1030 10 16.0934 0 0
2:35 pm 14:35 Sunny 47 8.5 17 -8.2 30 30 WNW 14 22 30.42 1030 10 16.0934 0 0
2:55 pm 14:55 Sunny 47 8.5 17 -8.4 30 30 NNW 16 26 30.42 1030 10 16.0934 0 0
3:15 pm 15:15 Sunny 47 8.5 15 -9.2 28 28 WNW 20 31 30.42 1030 10 16.0934 0 0
3:35 pm 15:35 Sunny 47 8.4 15 -9.2 28 28 NW 13 20 30.42 1030 10 16.0934 0 0
3:55 pm 15:55 Sunny 47 8.6 15 -9.3 27 27 NNW 18 30 30.42 1030 10 16.0934 0 0
4:15 pm 16:15 Sunny 47 8.3 16 -8.9 29 29 NNW 17 28 30.42 1030 10 16.0934 0 0
4:35 pm 16:35 Sunny 47 8.3 16 -8.7 29 29 NW 13 20 30.42 1030 10 16.0934 0 0
4:55 pm 16:55 Sunny 46 7.7 16 -8.9 30 30 NNW 15 24 30.42 1030 10 16.0934 0 0
5:15 pm 17:15 Sunny 46 7.5 16 -9 30 30 NW 9 15 30.42 1030 10 16.0934 0 0
5:35 pm 17:35 Sunny 45 7.1 16 -8.8 32 32 NNW 9 15 30.45 1031 10 16.0934 0 0
5:55 pm 17:55 Sunny 43 6.2 17 -8.4 35 35 N 6 9 30.45 1031 10 16.0934 0 0
6:15 pm 18:15 Sunny 40 4.7 18 -8 40 40 N 7 11 30.45 1031 10 16.0934 0 0
6:35 pm 18:35 Clear 35 1.9 18 -7.8 49 49 NNE 8 13 30.48 1032 10 16.0934 0 0
6:55 pm 18:55 Clear 36 2 17 -8.4 46 46 NNE 8 13 30.48 1032 10 16.0934 0 0
7:15 pm 19:15 Clear 32 0.2 15 -9.6 48 48 NE 7 11 30.5 1033 10 16.0934 0 0
7:35 pm 19:35 Clear 33 0.4 15 -9.4 48 48 NE 8 13 30.5 1033 10 16.0934 0 0
7:55 pm 19:55 Clear 31 -0.7 16 -9 54 54 E 6 9 30.5 1033 10 16.0934 0 0
8:15 pm 20:15 Clear 31 -0.8 15 -9.5 52 52 E 5 7 30.5 1033 10 16.0934 0 0
8:35 pm 20:35 Clear 31 -0.3 14 -9.8 49 49 ENE 6 9 30.5 1033 10 16.0934 0 0
8:55 pm 20:55 Clear 29 -1.7 15 -9.3 57 57 ENE 5 7 30.5 1033 10 16.0934 0 0
9:15 pm 21:15 Clear 29 -1.9 16 -9.1 58 58 Calm 30.53 1034 10 16.0934 0 0
9:35 pm 21:35 Clear 28 -2.2 16 -9.1 60 60 Calm 30.53 1034 10 16.0934 0 0
9:55 pm 21:55 Clear 27 -2.8 15 -9.2 62 62 Calm 30.53 1034 10 16.0934 0 0
10:15 pm 22:15 Partly Cloudy 24 -4.6 16 -9 72 72 Calm 30.53 1034 10 16.0934 0 0
10:35 pm 22:35 Clear 24 -4.5 16 -8.8 72 72 Calm 30.59 1036 10 16.0934 0 0
10:55 pm 22:55 Clear 25 -3.9 16 -9 68 68 SE 3 6 30.56 1035 10 16.0934 0 0
11:15 pm 23:15 Clear 23 -5.2 16 -8.9 76 76 SE 3 6 30.56 1035 10 16.0934 0 0
11:35 pm 23:35 Clear 25 -4.1 17 -8.6 71 71 ESE 3 6 30.53 1034 10 16.0934 0 0
11:55 pm 23:55 Partly Cloudy 28 -2.5 17 -8.4 64 64 SE 7 11 30.53 1034 10 16.0934 0 0

Powered by AerisWeather